Location: Breungeshain
(50.5000°N, 9.2000°E)
Time: 03:38:47
(UTC+00:00)

ISS - Visible Passes

Search period start: 26 April 2019 00:00
Search period end: 06 May 2019 00:00
Orbit: 408 x 410 km, 51.6° (Epoch: 26 April)

Date Brightness Start Highest point End Pass type
(mag) Time Alt. Az. Time Alt. Az. Time Alt. Az.
30 Apr -1.3 03:21:31 10° S 03:23:31 15° SE 03:25:32 10° ESE visible
02 May -2.3 03:15:10 10° SSW 03:18:04 28° SSE 03:20:59 10° E visible
03 May -1.8 02:25:38 13° S 02:27:22 19° SE 02:29:48 10° E visible
04 May -1.3 01:36:37 12° SE 01:36:43 12° SE 01:38:08 10° ESE visible
04 May -3.3 03:09:29 10° SW 03:12:42 51° SSE 03:15:57 10° ENE visible
05 May -2.8 02:20:15 21° SSW 02:21:54 35° SSE 02:24:57 10° E visible
